This demonstration page uses our WeatherBlox Daily Observations layout. Learn more.

Left ArrowRight Arrow

34.02893, -84.19858

Hourly Observations for August 7, 2015

Temp ( °F °C ) Dew Point ( °F °C ) Humidity (%) Winds ( mph kmh ) Pressure ( in mb ) Visibility ( mi km ) Precip ( " mm )
12:07 am 00:07 Cloudy 74 23.3 73 22.8 97 97 SW 9 15 29.83 1010 10 16 0.00 0.03
12:25 am 00:25 Cloudy 74 23.3 73 22.8 97 97 SW 7 11 29.83 1010 10 16 0.00 0.03
12:53 am 00:53 Cloudy 73 22.8 73 22.8 100 100 SW 6 9 29.82 1010 10 16 0.00 0.03
1:06 am 01:06 Mostly Cloudy 73 23 73 23 100 100 SW 7 11 29.83 1010 10 16 0.00 0.00
1:53 am 01:53 Mostly Clear 73 22.8 72 22.2 96 96 WSW 7 11 29.80 1009 10 16 0.00 0.00
2:03 am 02:03 Mostly Clear 73 23 72 22 94 94 WSW 6 9 29.80 1009 10 16 0.00 0.00
2:25 am 02:25 Mostly Cloudy 73 22.8 73 22.8 100 100 W 3 6 29.80 1009 10 16 0.00 0.00
2:53 am 02:53 Cloudy 73 22.8 73 22.8 100 100 SW 7 11 29.80 1009 10 16 0.00 0.00
3:04 am 03:04 Cloudy 73 23 73 23 100 100 SW 6 9 29.80 1009 10 16 0.00 0.00
3:53 am 03:53 Cloudy 74 23.3 73 22.8 97 97 W 8 13 29.79 1009 9 14 0.00 0.00
4:17 am 04:17 Cloudy 74 23.3 73 22.8 97 97 WSW 6 9 29.80 1009 9 14 0.00 0.00
4:27 am 04:27 Cloudy 74 23.3 73 22.8 97 97 W 7 11 29.80 1009 9 14 0.00 0.00
4:53 am 04:53 Cloudy 74 23.3 73 22.8 97 97 W 6 9 29.80 1009 9 14 0.00 0.00
5:00 am 05:00 Cloudy 73 23 73 23 100 100 W 5 7 29.80 1009 9 14 0.00 0.00
5:37 am 05:37 Cloudy 74 23.3 73 22.8 97 97 WSW 5 7 29.80 1009 9 14 0.00 0.00
5:41 am 05:41 Cloudy 74 23.3 73 22.8 97 97 WSW 5 7 29.80 1009 9 14 0.00 0.00
5:53 am 05:53 Mostly Cloudy 73 22.8 73 22.8 100 100 WSW 6 9 29.80 1009 8 13 0.00 0.00
6:06 am 06:06 Mostly Cloudy 73 23 73 23 100 100 WSW 5 7 29.80 1009 8 13 0.00 0.00
6:22 am 06:22 Mostly Cloudy 73 23 73 23 100 100 W 5 7 29.80 1009 8 13 0.00 0.00
6:53 am 06:53 Mostly Cloudy 73 22.8 72 22.2 96 96 W 7 11 29.82 1010 8 13 0.00 0.00
7:53 am 07:53 Mostly Cloudy with Mist and Fog 73 22.8 72 22.2 96 96 W 5 7 29.83 1010 6 10 0.00 0.00
8:53 am 08:53 Mostly Cloudy 75 23.9 73 22.8 94 94 W 8 13 29.83 1010 7 11 0.00 0.00
9:53 am 09:53 Mostly Cloudy 77 25 72 22.2 85 85 W 10 17 29.84 1011 9 14 0.00 0.00
10:00 am 10:00 Mostly Cloudy 77 25 72 22 83 83 W 9 15 29.85 1011 10 16 0.00 0.00
10:53 am 10:53 Mostly Cloudy 79 26.1 70 21.1 74 74 WNW 8 13 29.85 1011 10 16 0.00 0.00
11:00 am 11:00 Mostly Cloudy 79 26 70 21 74 74 W 14 22 29.85 1011 10 16 0.00 0.00
11:53 am 11:53 Mostly Cloudy 81 27.2 68 20 65 65 W 13 20 29.83 1010 10 16 0.00 0.00
12:53 pm 12:53 Mostly Cloudy 86 30 69 20.6 57 57 NW 13 20 29.83 1010 10 16 0.00 0.00
1:53 pm 13:53 Mostly Cloudy 87 30.6 68 20 53 53 WNW 15 24 29.83 1010 10 16 0.00 0.00
2:53 pm 14:53 Partly Cloudy 87 30.6 68 20 53 53 WNW 13 20 29.82 1010 10 16 0.00 0.00
3:53 pm 15:53 Partly Cloudy 87 30.6 68 20 53 53 NW 12 19 29.80 1009 10 16 0.00 0.00
4:53 pm 16:53 Sunny 87 30.6 68 20 53 53 NNW 12 19 29.78 1009 10 16 0.00 0.00
5:53 pm 17:53 Mostly Sunny 88 31.1 67 19.4 50 50 NW 13 20 29.78 1008 10 16 0.00 0.00
6:53 pm 18:53 Sunny 86 30 67 19.4 53 53 NW 12 19 29.78 1008 10 16 0.00 0.00
7:53 pm 19:53 Mostly Sunny 84 28.9 68 20 59 59 NNW 5 7 29.80 1009 10 16 0.00 0.00
8:53 pm 20:53 Clear 81 27.2 67 19.4 62 62 WNW 7 11 29.80 1009 10 16 0.00 0.00
9:53 pm 21:53 Clear 79 26.1 67 19.4 67 67 W 5 7 29.81 1010 10 16 0.00 0.00
10:53 pm 22:53 Clear 78 25.6 68 20 71 71 NNW 3 6 29.83 1010 10 16 0.00 0.00
11:53 pm 23:53 Clear 77 25 68 20 74 74 Calm 29.83 1010 10 16 0.00 0.00

Powered by AerisWeather